Tracking 18852 objects as of 24-Nov-2017
HD Live streaming from Space Station
objects crossing your sky now

OPS 2222

Track OPS 2222 now!
OPS 2222 is classified as:


NORAD ID: 3334
Int'l Code: 1968-063A
Perigee: 32,085.2 km
Apogee: 40,081.9 km
Inclination: 13.3 °
Period: 1,450.9 minutes
Semi major axis: 42454 km
RCS: Unknown
Launch date: August 6, 1968
Source: United States (US)
Launch site: AIR FORCE EASTERN TEST RANGE (AFETR)
aabbcc
Your satellite tracking list
Your tracking list is empty




NASA's NSSDC Master Catalog

Two Line Element Set (TLE):
1 03334U 68063A   17299.91438122 0.00000000  00000-0  00000-0 0    07
2 03334  13.2837 321.0240 0941804 141.3466 225.7814  0.99246857    01
Source of the keplerian elements: McCants